Location: Recife
(8.0585°S, 34.8848°W)
Time: 14:55:47
(UTC-03:00)

Tiros 1 despin weight - Pass Details

Date: 15 April 2026
Orbit: 555 x 591 km, 48.2° (Epoch: 14 May)

Event Time Altitude Azimuth Distance (km) Brightness Sun altitude
Rises 02:51:49 0° 281° (W) 2,806 - -37.6°
Reaches altitude 10° 02:55:24 10° 251° (WSW) 1,905 - -36.7°
Maximum altitude 02:57:13 12° 226° (SW) 1,754 - -36.3°
Drops below altitude 10° 02:59:02 10° 201° (SSW) 1,902 - -35.8°
Sets 03:02:37 0° 171° (S) 2,796 - -35.0°
